Terminal Aerodrome Forecast
Issued by NWS

Home | Current Version | Previous Version | Graphics & Text | Print | Product List | Glossary Off
Versions: 1 2 3 4 5 6 7 8 9 10 11 12 13 14 15 16 17 18 19 20 21 22 23 24 25 26 27 28 29 30 31 32 33 34 35 36 37 38 39

000
FTUS43 KDDC 020547 RRA
TAFGCK
TAF
KGCK 020547Z 0206/0224 09006KT P6SM SCT120
     FM021000 06008KT 3SM BR BKN007
      TEMPO 0211/0213 1SM BR OVC003
     FM021600 VRB06KT P6SM SCT015=

USA.gov is the U.S. government's official web portal to all federal, state and local government web resources and services.